Regional Weather Roundup
Issued by NWS

Home | Current Version | Previous Version | Text Only | Print | Product List | Glossary Off
Versions: 1 2 3 4 5 6 7 8 9 10 11 12 13 14 15 16 17 18 19 20 21 22 23 24 25 26 27 28 29 30 31 32 33 34 35 36 37 38 39 40 41 42 43 44 45 46 47 48 49 50

000
ASUS43 KOAX 230710
RWRNE

WEATHER ROUNDUP FOR NEBRASKA
NATIONAL WEATHER SERVICE OMAHA NE
100 AM CST SUN NOV 23 2014

NOTES: SATELLITE DATA IS BEING USED TO AUGMENT CLOUD COVER ABOVE
       12000 FEET.
       "FAIR" INDICATES FEW OR NO CLOUDS BELOW 12,000 FEET WITH NO
       SIGNIFICANT WEATHER AND/OR OBSTRUCTIONS TO VISIBILITY.

  * THESE STATIONS DO NOT REPORT WEATHER SUCH AS RAIN...SNOW OR FOG.

NEZ001>004-019>022-054>056-230800-
NEBRASKA PANHANDLE

CITY           SKY/WX    TMP DP  RH WIND       PRES   REMARKS
SCOTTSBLUFF    CLOUDY    44  32  62 N26G41    29.56R
ALLIANCE       MOCLDY    42  31  64 NW21G28   29.54R
CHADRON        CLOUDY    40  30  67 NW22G33   29.56R WCI  30
KIMBALL        CLOUDY    42  28  55 W13       29.56R
SIDNEY         CLOUDY    45  27  49 NW10      29.55R
$$

NEZ057>060-069>072-079>082-230800-
SOUTHWEST NEBRASKA

CITY           SKY/WX    TMP DP  RH WIND       PRES   REMARKS
NORTH PLATTE   CLOUDY    39  27  62 CALM      29.49F
IMPERIAL       CLOUDY    42  18  37 NW6       29.51S
LEXINGTON      CLOUDY    44  35  70 SE5       29.47F
MCCOOK         CLOUDY    47  35  63 SE10      29.46F
OGALLALA       MOCLDY    34  24  67 CALM      29.50F
$$

NEZ005>010-023>029-035>040-094-230800-
NORTH CENTRAL NEBRASKA

CITY           SKY/WX    TMP DP  RH WIND       PRES   REMARKS
VALENTINE      PTCLDY    39  36  89 CALM      29.44R
AINSWORTH      MOCLDY    42  36  79 SW7       29.43F
BROKEN BOW     CLOUDY    40  29  64 CALM      29.47F
O`NEILL        CLOUDY    46  36  66 S8        29.42F
ORD            CLOUDY    41  33  73 CALM      29.46F
THEDFORD       MOCLDY    41  32  69 CALM      29.48S
$$

NEZ041-046>049-061>064-073>077-083>087-230800-
SOUTH CENTRAL NEBRASKA

CITY           SKY/WX    TMP DP  RH WIND       PRES   REMARKS
AURORA         CLOUDY    54  51  90 SW12      29.49F
HASTINGS       CLOUDY    54  48  80 S9        29.49F
HEBRON         CLOUDY    56  49  78 S12G22    29.53F
HOLDREGE       CLOUDY    50  47  88 CALM      29.49F
KEARNEY *      CLOUDY    50  46  87 SW7       29.52F
YORK           CLOUDY    54  50  87 S13       29.50F
$$

NEZ011>018-030>034-042>045-230800-
NORTHEAST NEBRASKA

CITY           SKY/WX    TMP DP  RH WIND       PRES   REMARKS
NORFOLK        CLOUDY    52  50  93 W9        29.48S FOG
ALBION         CLOUDY    48  47  93 S5        29.49F FOG
BLAIR          CLOUDY    55  52  90 S15       29.53F
COLUMBUS *     CLOUDY    54  48  82 S10       29.51F
FREMONT        CLOUDY    55  52  89 S10       29.51F
TEKAMAH        CLOUDY    54  51  90 S12       29.51F
WAYNE          CLOUDY    53  50  90 SW13      29.49S
$$

NEZ050>053-065>068-078-088>093-230800-
SOUTHEAST NEBRASKA

CITY           SKY/WX    TMP DP  RH WIND       PRES   REMARKS
LINCOLN        CLOUDY    56  51  84 S10       29.53F
OMAHA EPPLEY   CLOUDY    53  52  96 S15       29.54F
BEATRICE       CLOUDY    56  51  84 S15G26    29.55F
FALLS CITY     CLOUDY    55  51  86 S10       29.60F
NEBRASKA CITY  CLOUDY    54  53  96 S15       29.57F
PLATTSMOUTH    CLOUDY    54  51  92 S18       29.55F
$$

NEZ044-045-051>053-067-230800-
OMAHA AREA

CITY           SKY/WX    TMP DP  RH WIND       PRES   REMARKS
OMAHA EPPLEY   CLOUDY    53  52  96 S15       29.54F
BLAIR          CLOUDY    55  52  90 S15       29.53F
FREMONT        CLOUDY    55  52  89 S10       29.51F
MILLARD        CLOUDY    55  52  89 S9        29.53F
OFFUTT AFB     CLOUDY    54  52  94 S12       29.53F
PLATTSMOUTH    CLOUDY    54  51  92 S18       29.55F
WAHOO          CLOUDY    53  50  89 S9        29.52F
$$



USA.gov is the U.S. government's official web portal to all federal, state and local government web resources and services.